Wind_Speed
30 31 31 32 33 34 34 35 36 36 37 38 39 39 39 40 40 41 40 40 41 42 42 42 41 41 41 41 41 42 42 41 41 39 39 39 40 40 39 39 40 40 39
31 32 33 33 34 34 35 36 36 37 38 38 39 39 40 41 41 42 42 42 42 43 43 42 42 43 44 43 44 44 44 43 43 42 41 42 42 42 42 42 42 42 42
33 33 34 34 34 35 36 37 37 38 38 39 39 40 41 41 41 41 42 43 44 44 43 43 43 44 45 45 45 46 45 45 45 44 44 43 43 43 43 43 43 43 43
34 34 34 35 35 36 37 37 37 38 38 38 38 39 39 40 41 41 41 42 43 44 44 44 45 45 45 46 46 46 47 47 46 46 45 45 45 45 45 44 44 45 44
35 35 35 36 36 36 36 37 37 37 37 37 38 38 38 39 39 40 41 42 43 44 44 45 45 45 45 46 46 47 47 47 47 48 47 47 46 46 47 46 46 47 47
35 35 36 36 36 36 36 36 36 37 37 37 37 38 39 39 39 39 40 41 42 44 45 46 46 46 46 47 47 47 48 48 48 47 48 47 46 47 47 47 48 47 48
35 36 36 36 36 36 36 37 36 36 37 37 38 38 38 39 39 40 40 41 42 43 45 46 47 47 48 47 48 47 48 48 49 48 48 47 46 46 46 46 48 49 48
35 35 36 36 36 36 37 37 37 37 38 39 39 39 39 39 40 40 41 42 43 44 45 46 47 47 47 47 48 47 47 47 49 48 47 47 45 45 46 47 48 48 47
35 36 36 36 36 36 37 37 37 38 39 39 40 40 40 40 40 40 41 43 43 43 44 45 45 45 46 46 46 46 47 47 48 49 48 48 47 47 48 49 48 48 48
35 36 36 36 36 37 37 37 38 39 39 39 40 41 41 42 42 41 40 40 41 41 42 43 43 44 44 45 45 45 46 46 48 49 49 50 50 50 50 50 49 48 49
34 35 36 36 36 36 37 37 38 38 39 39 40 40 41 41 41 41 39 38 39 40 41 42 42 42 42 43 44 46 47 46 46 48 49 50 50 50 50 49 49 49 50
34 35 36 36 36 36 37 37 37 38 38 38 39 40 40 39 38 38 38 38 38 38 39 39 38 39 40 42 44 45 46 45 46 47 47 48 49 49 48 48 50 50 50
34 35 35 36 35 35 35 36 37 37 37 38 38 38 38 37 36 36 36 36 36 36 36 36 36 37 38 40 42 42 43 44 44 45 46 47 47 48 48 49 50 49 49
34 35 35 35 34 34 34 35 36 36 37 37 37 36 35 35 34 35 35 35 34 34 34 33 34 35 36 37 37 37 38 39 40 41 43 44 45 47 47 48 48 48 48
34 34 34 33 34 34 34 35 35 36 36 35 34 34 34 34 34 34 34 35 35 34 33 33 34 34 35 36 35 35 35 35 37 38 39 41 43 45 46 46 46 46 45
33 33 34 34 34 34 35 35 35 35 35 34 33 33 33 34 34 34 35 35 34 34 32 32 32 33 34 33 33 33 34 35 35 36 37 39 40 42 42 43 43 43 43
33 34 34 34 34 34 34 34 34 34 33 33 33 33 34 34 34 34 34 33 32 32 31 31 32 33 32 30 30 31 31 33 34 35 35 35 37 37 37 38 39 39 40
33 33 33 33 33 33 33 33 33 32 32 32 32 33 33 33 33 33 32 31 30 31 31 31 31 31 30 29 29 30 31 31 32 32 33 34 34 34 33 33 34 35 36
33 32 32 32 32 32 32 32 32 31 31 31 31 31 31 31 31 31 30 30 30 30 29 29 29 28 28 27 28 29 30 31 31 32 32 32 31 30 30 31 32 32 33
30 30 31 31 32 32 31 31 31 31 30 30 30 29 30 29 29 29 29 29 29 29 28 28 28 27 27 26 27 28 28 29 30 30 30 30 29 29 30 30 30 30 30
29 29 30 30 31 31 31 31 30 30 29 29 29 29 29 29 28 29 28 28 28 28 28 28 27 26 25 24 26 27 28 27 28 28 28 28 28 28 29 29 28 27 28
29 29 29 30 30 31 30 30 30 29 29 28 28 28 29 29 28 28 28 27 28 28 27 27 25 24 23 24 26 26 26 26 26 27 26 26 26 27 27 27 27 27 27
28 27 27 28 28 28 28 28 29 28 28 28 28 28 28 28 28 28 28 28 28 27 25 24 23 22 22 24 24 24 24 23 24 25 25 25 25 25 25 25 26 25 25
27 27 27 27 26 26 27 27 27 27 28 27 27 27 28 27 27 28 28 27 25 24 24 23 22 22 22 22 23 23 23 23 23 24 25 25 24 24 23 24 25 26 26
26 26 26 26 25 25 26 26 26 27 27 27 27 27 28 27 27 27 26 24 23 22 22 21 20 21 21 22 23 23 22 22 23 24 25 25 24 24 24 24 25 25 25
25 25 25 25 25 25 25 25 25 26 26 26 26 27 26 26 25 24 23 22 21 21 20 20 20 21 21 21 22 22 22 23 24 25 25 24 24 24 25 24 24 24 23
Wind_Direction
273 275 276 278 279 280 280 281 282 283 283 282 281 280 279 277 276 276 275 275 275 274 273 272 272 272 272 272 272 272 272 272 272 273 274 274 274 275 276 277 276 276 275
274 276 278 279 280 281 281 282 282 283 282 282 281 280 280 279 278 276 275 274 274 274 273 272 272 272 271 272 273 273 272 272 272 273 274 274 274 275 275 276 276 276 276
275 277 279 280 281 282 283 283 283 283 283 283 283 282 281 280 278 277 276 275 274 274 274 272 271 272 271 272 273 273 272 272 273 273 273 274 274 275 275 276 276 276 276
276 277 279 280 282 282 283 283 283 283 284 284 285 284 283 281 281 279 277 276 274 273 273 273 272 272 272 272 272 272 272 271 272 273 273 273 274 275 275 276 276 276 276
275 277 279 280 281 282 283 283 283 284 284 285 286 285 284 284 283 281 279 277 276 274 273 273 272 272 272 272 272 272 271 272 273 273 273 273 273 274 275 275 275 276 276
275 277 279 280 281 282 282 282 283 284 284 285 286 286 285 285 284 283 281 279 278 276 275 273 272 272 271 271 271 271 272 273 273 274 274 273 273 274 275 276 276 277 278
275 277 278 279 280 281 282 282 283 283 284 286 287 287 287 285 284 283 282 281 280 279 277 276 273 272 271 271 271 272 272 273 273 273 273 273 273 273 275 276 277 277 278
276 277 278 279 280 281 282 282 283 284 286 287 287 287 287 287 285 284 283 282 281 280 279 277 274 272 271 270 270 271 272 273 271 271 273 273 273 273 275 277 278 279 280
277 278 279 279 280 282 283 283 284 286 287 288 289 289 288 287 286 285 285 284 283 282 281 279 276 273 272 271 271 271 271 272 272 272 272 272 274 275 276 278 279 279 280
278 278 279 280 281 282 283 284 285 287 288 289 290 290 290 290 289 287 287 286 284 282 282 281 277 273 272 270 270 272 273 273 274 272 271 273 274 274 275 275 278 279 281
278 278 279 279 281 282 284 285 286 287 288 289 290 291 291 290 290 290 288 287 286 285 284 282 280 275 274 272 272 273 273 274 274 274 273 273 273 274 274 275 276 278 280
278 278 278 279 281 283 285 286 287 288 289 291 291 291 291 291 290 290 290 290 289 289 288 286 281 276 276 275 275 273 273 274 275 275 276 275 275 275 274 276 278 279 280
278 278 279 280 282 284 285 287 288 290 291 293 293 292 292 292 291 291 291 292 293 292 291 288 285 281 279 278 277 275 276 276 277 278 277 276 276 276 277 278 279 280 280
279 278 279 281 282 284 285 287 289 290 292 293 294 293 293 292 292 293 294 294 293 293 292 289 287 286 283 281 280 278 279 280 280 280 280 278 278 278 278 279 278 279 279
279 278 279 281 282 283 285 287 289 291 292 293 293 293 293 292 293 294 294 295 295 294 292 289 288 286 287 283 280 279 281 282 283 283 284 282 282 282 280 280 279 279 279
278 278 279 280 282 283 285 287 289 290 291 292 292 293 293 293 294 294 294 295 294 293 292 290 289 290 290 287 282 281 283 284 285 287 288 287 286 284 282 281 280 280 281
278 278 279 280 282 283 284 286 288 289 290 290 291 293 293 294 293 293 294 294 293 293 292 292 290 291 291 288 285 286 286 287 288 290 291 291 290 289 286 284 282 282 281
278 277 278 279 281 282 284 286 287 288 289 290 291 292 294 295 294 294 294 293 293 293 293 293 292 292 291 290 289 290 289 292 292 293 293 294 294 293 290 288 287 287 285
277 277 277 279 281 282 284 285 287 288 289 290 291 293 294 295 295 295 295 294 293 294 294 294 294 294 291 290 290 290 292 294 293 295 296 297 296 296 295 294 292 291 289
276 276 277 278 280 281 283 285 286 287 288 290 291 292 292 294 295 296 296 295 294 293 294 295 295 293 291 290 290 290 291 294 296 297 298 298 297 296 297 298 296 294 294
275 277 278 279 280 281 282 284 284 286 287 289 290 291 292 294 295 296 296 295 294 293 295 294 294 293 290 292 292 291 291 294 298 298 301 300 298 296 297 299 299 298 299
275 279 279 279 280 281 282 283 283 285 286 288 289 289 291 293 294 295 297 296 296 295 294 294 294 292 291 293 295 296 295 297 298 298 300 301 300 298 299 300 300 300 301
275 277 280 281 281 281 281 281 282 284 286 288 289 290 291 292 292 293 295 296 296 296 294 293 291 291 294 293 295 297 298 302 304 303 303 303 302 302 302 302 302 302 302
275 277 280 282 281 281 281 281 283 284 286 288 289 289 290 292 292 292 293 294 295 295 292 292 290 292 295 296 298 302 303 304 307 308 308 308 306 305 302 302 303 302 302
275 279 281 283 282 281 281 282 283 285 287 289 289 289 290 291 293 293 292 292 292 293 293 293 292 294 297 301 303 303 305 308 310 310 309 310 308 307 307 306 305 304 302
276 279 281 281 282 279 280 282 285 288 289 289 289 289 291 292 292 292 292 292 291 293 293 293 293 295 298 302 305 305 306 309 311 311 310 310 308 307 307 307 308 308 306
Height
5812 5812 5811 5810 5808 5807 5806 5804 5802 5801 5799 5797 5795 5794 5792 5791 5789 5788 5788 5787 5786 5786 5785 5785 5784 5784 5783 5782 5782 5782 5781 5781 5780 5780 5779 5779 5778 5778 5777 5776 5775 5774 5774
5805 5805 5804 5802 5801 5799 5798 5796 5794 5792 5790 5788 5786 5785 5783 5781 5780 5778 5778 5777 5776 5776 5775 5775 5774 5774 5773 5773 5772 5772 5771 5771 5771 5770 5770 5769 5769 5768 5767 5766 5765 5764 5764
5798 5797 5796 5795 5793 5791 5789 5788 5786 5784 5781 5779 5777 5775 5773 5771 5770 5768 5767 5766 5766 5765 5765 5764 5764 5763 5763 5762 5762 5761 5761 5761 5760 5760 5759 5758 5758 5757 5757 5756 5755 5754 5753
5791 5790 5788 5787 5785 5783 5781 5779 5777 5775 5772 5770 5768 5766 5763 5761 5759 5758 5757 5756 5755 5754 5754 5753 5753 5752 5751 5751 5751 5750 5750 5750 5749 5749 5748 5747 5747 5746 5745 5744 5743 5743 5742
5783 5782 5780 5779 5777 5775 5773 5771 5768 5766 5764 5761 5759 5757 5754 5752 5750 5748 5747 5745 5744 5743 5742 5742 5741 5741 5740 5740 5739 5739 5738 5738 5737 5737 5736 5735 5735 5734 5733 5732 5731 5731 5730
5775 5773 5772 5770 5768 5766 5764 5762 5760 5757 5755 5753 5750 5748 5745 5743 5740 5738 5737 5735 5733 5732 5730 5729 5729 5728 5727 5727 5727 5727 5726 5725 5725 5724 5724 5723 5722 5721 5721 5720 5719 5718 5717
5766 5765 5763 5762 5760 5758 5756 5753 5751 5749 5746 5744 5741 5739 5736 5733 5731 5728 5726 5724 5722 5720 5718 5717 5716 5715 5714 5714 5714 5713 5713 5713 5712 5711 5711 5710 5710 5709 5708 5707 5706 5706 5704
5758 5756 5755 5753 5751 5749 5747 5745 5742 5740 5737 5734 5732 5729 5727 5725 5722 5719 5716 5713 5711 5709 5706 5704 5702 5702 5701 5701 5701 5701 5701 5700 5699 5698 5698 5697 5697 5696 5696 5695 5694 5693 5692
5749 5747 5746 5744 5743 5741 5738 5736 5733 5731 5728 5725 5721 5719 5717 5715 5712 5710 5706 5702 5699 5696 5693 5691 5689 5689 5688 5688 5688 5688 5688 5687 5686 5685 5685 5685 5684 5684 5683 5682 5681 5680 5679
5740 5738 5737 5735 5734 5732 5729 5727 5724 5722 5719 5716 5712 5709 5706 5702 5700 5699 5697 5692 5688 5685 5682 5679 5677 5676 5675 5675 5676 5675 5675 5674 5673 5672 5671 5671 5671 5671 5670 5669 5667 5666 5665
5731 5730 5728 5726 5725 5723 5720 5718 5715 5712 5709 5706 5703 5699 5696 5692 5688 5686 5685 5683 5679 5674 5670 5667 5664 5663 5663 5663 5664 5663 5662 5661 5659 5659 5658 5658 5657 5657 5656 5655 5654 5653 5651
5723 5721 5719 5717 5715 5713 5711 5708 5706 5703 5700 5696 5693 5689 5685 5682 5679 5676 5674 5671 5668 5665 5660 5656 5653 5652 5652 5652 5651 5650 5649 5648 5646 5646 5644 5644 5644 5643 5642 5641 5640 5639 5637
5714 5712 5710 5708 5706 5704 5702 5699 5696 5693 5690 5687 5683 5679 5676 5672 5669 5666 5664 5661 5658 5655 5652 5648 5644 5642 5642 5640 5639 5637 5636 5635 5634 5632 5631 5631 5630 5629 5629 5627 5626 5624 5623
5705 5703 5701 5699 5697 5695 5693 5690 5687 5684 5681 5677 5674 5670 5667 5664 5661 5658 5655 5652 5650 5648 5644 5640 5636 5634 5632 5630 5628 5626 5624 5623 5621 5620 5619 5618 5617 5615 5614 5613 5611 5610 5609
5696 5694 5692 5690 5688 5686 5684 5681 5678 5675 5672 5669 5665 5662 5659 5656 5653 5650 5647 5643 5641 5638 5637 5633 5628 5625 5622 5620 5618 5616 5614 5613 5612 5610 5608 5606 5604 5602 5600 5599 5597 5596 5595
5686 5685 5683 5681 5679 5677 5675 5672 5669 5667 5664 5661 5658 5655 5651 5648 5645 5642 5639 5635 5632 5629 5627 5625 5621 5618 5614 5611 5609 5608 5607 5605 5603 5601 5598 5596 5593 5590 5588 5586 5584 5583 5582
5677 5676 5674 5672 5670 5668 5666 5663 5661 5658 5656 5653 5650 5647 5644 5640 5637 5634 5630 5627 5624 5621 5619 5617 5614 5611 5607 5605 5603 5602 5600 5597 5595 5593 5590 5586 5583 5580 5577 5575 5573 5571 5569
5668 5666 5665 5663 5661 5659 5657 5655 5652 5650 5647 5645 5642 5639 5636 5633 5629 5626 5623 5620 5617 5614 5611 5609 5607 5604 5601 5599 5597 5595 5593 5590 5587 5585 5582 5578 5575 5572 5568 5566 5563 5561 5559
5659 5657 5655 5654 5652 5650 5648 5646 5644 5642 5640 5637 5634 5632 5628 5625 5622 5619 5616 5613 5610 5607 5604 5602 5600 5598 5595 5593 5591 5589 5586 5584 5581 5577 5574 5571 5568 5564 5561 5558 5555 5552 5550
5650 5648 5647 5645 5644 5642 5640 5638 5636 5634 5632 5629 5627 5624 5621 5618 5615 5612 5609 5606 5603 5601 5598 5596 5594 5592 5590 5587 5585 5583 5581 5578 5575 5571 5568 5564 5561 5558 5555 5551 5548 5545 5542
5641 5640 5638 5637 5635 5634 5632 5630 5628 5626 5624 5622 5619 5617 5614 5611 5608 5605 5602 5600 5597 5595 5592 5590 5588 5586 5584 5582 5580 5577 5575 5572 5569 5565 5562 5559 5556 5552 5549 5545 5541 5538 5535
5634 5632 5630 5629 5627 5625 5624 5622 5620 5618 5617 5615 5613 5610 5608 5605 5602 5599 5596 5593 5591 5588 5586 5584 5582 5580 5578 5576 5574 5572 5569 5567 5564 5561 5557 5553 5549 5546 5542 5540 5536 5533 5530
5626 5625 5623 5621 5619 5617 5615 5614 5612 5611 5609 5607 5605 5603 5601 5598 5596 5593 5590 5588 5585 5582 5580 5578 5576 5575 5573 5571 5569 5567 5564 5561 5558 5554 5551 5548 5544 5541 5537 5534 5531 5528 5525
5619 5618 5616 5614 5612 5611 5609 5607 5605 5604 5602 5600 5598 5596 5594 5592 5589 5587 5584 5582 5579 5577 5574 5573 5572 5570 5568 5566 5564 5562 5559 5557 5554 5550 5546 5543 5540 5536 5533 5530 5526 5523 5519
5612 5611 5609 5607 5606 5604 5602 5601 5599 5597 5596 5593 5591 5589 5587 5585 5583 5580 5578 5576 5574 5572 5570 5568 5567 5566 5564 5562 5559 5557 5554 5552 5550 5546 5542 5538 5534 5531 5528 5525 5521 5517 5514
5606 5604 5603 5601 5600 5598 5596 5594 5593 5591 5589 5587 5585 5583 5581 5579 5577 5574 5573 5571 5569 5567 5566 5564 5563 5561 5560 5557 5555 5552 5550 5547 5544 5541 5537 5533 5529 5526 5523 5520 5516 5512 5509